カタログに戻る

SL-8 DEB

運用中LEO
NORAD 56997·DEBRIS·🇷🇺 Russia

打ち上げ Oct 13, 1971 から Plesetsk Cosmodrome

Loading…

次のパス (今後24時間)

TLE

古いSource: Space-Track

元期: Sep 2, 2026, 10:03 UTC

1 56997U 71086K   26245.41941270 -.00000011  00000-0  33283-4 0  9991
2 56997  74.0174 258.9202 0075200 191.2599 236.6523 12.27911245572778

AllMySatでSL-8 DEBをリアルタイム追跡

Download on the App Store